Flag for U.S.A. Weather past 2 weeks in Evansville, Indiana, U.S.A.

Now
69 °F

Clear.


Feels Like: 69 °F
Forecast: 66 / 85 °F
Wind: 8 mph from Southwest

Location: Evansville Regional Airport

Current Time: May 26, 2015 at 11:00:10 PM

Latest Report: May 26, 2015 at 9:54 PM


Visibility: 10 mi

Pressure: 30.03 "Hg

Humidity: 79%

Dew point: 62 °F

Location of EvansvilleLocation

Historic Weather in Evansville — Graph

°F

Evansville temperature yesterday

Maximum temperature yesterday: 76 °F (at 11:54 AM)
Minimum temperature yesterday: 68 °F (at 5:54 AM)
Average temperature yesterday: 72 °F

Past Weeks' High & Low Weather Summary

 TemperatureHumidityPressure
High85 °F (May 15, 3:54 PM)93% (May 15, 9:54 PM)30.40 "Hg (May 15, 9:54 PM)
Low45 °F (May 22, 5:54 AM)32% (May 23, 3:54 PM)29.95 "Hg (May 26, 3:54 PM)
Average66 °F71%30.14 "Hg
* Reported May 11 8:54 PM — May 26 8:54 PM, Evansville, Weather by CustomWeather, © 2015

Note: Actual official high and low records may vary slightly from our data, if they occured in-between our weather recording intervals... More about our weather records

Advertising

Evansville weather history for previous 24 hours

 ConditionsComfort  
Time TempWeatherWind HumidityBarometerVisibility
8:54 PM
Tue, May 26
69 °FClear.7 mph79%30.01 "Hg10 mi
7:54 PM74 °FSunny.12 mph64%29.98 "Hg10 mi
6:54 PM77 °FSunny.13 mph58%29.97 "Hg10 mi
5:54 PM77 °FScattered clouds.18 mph56%29.96 "Hg10 mi
4:54 PM79 °FBroken clouds.17 mph56%29.96 "Hg10 mi
3:54 PM80 °FScattered clouds.16 mph56%29.95 "Hg10 mi
2:54 PM79 °FPartly sunny.20 mph58%29.96 "Hg10 mi
1:54 PM78 °FSunny.24 mph60%29.97 "Hg10 mi
12:54 PM77 °FSunny.22 mph62%29.97 "Hg10 mi
11:54 AM77 °FBroken clouds.21 mph66%29.99 "Hg10 mi
10:54 AM74 °FLight rain. Mostly cloudy.21 mph76%29.99 "Hg10 mi
9:54 AM75 °FPartly sunny.14 mph74%29.97 "Hg10 mi
8:54 AM75 °FSunny.12 mph74%29.96 "Hg10 mi
7:54 AM72 °FPassing clouds.8 mph76%29.99 "Hg10 mi
6:54 AM69 °FSunny.8 mph84%30.01 "Hg10 mi
5:54 AM68 °FBroken clouds.8 mph90%30.01 "Hg10 mi
4:54 AM69 °FOvercast.10 mph87%30.01 "Hg10 mi
3:54 AM70 °FOvercast.8 mph84%30.01 "Hg10 mi
3:03 AM70 °FOvercast.12 mph87%30.04 "Hg10 mi
2:54 AM70 °FOvercast.8 mph87%30.02 "Hg10 mi
1:54 AM68 °FPassing clouds.7 mph93%30.02 "Hg9 mi
12:54 AM68 °FPassing clouds.5 mph93%30.03 "Hg7 mi
11:54 PM
Mon, May 25
69 °FPassing clouds.9 mph90%30.05 "Hg9 mi
Weather by CustomWeather, © 2015

See weather overviewHow to use our weather pages